Tracking 34138 objects as of 17-May-2026
HD Live streaming from Space Station
objects crossing your sky now

ONEWEB-0098

Track ONEWEB-0098 now!
10-day predictions
ONEWEB-0098 is classified as:


NORAD ID: 45442
Int'l Code: 2020-020U
Perigee: 1,223.5 km
Apogee: 1,226.2 km
Inclination: 87.9 °
Period: 109.8 minutes
Semi major axis: 7595 km
RCS: Unknown
Launch date: March 21, 2020
Source: United Kingdom (UK)
Launch site: TYURATAM MISSILE AND SPACE COMPLEX (TTMTR)
Your satellite tracking list
Your tracking list is empty




NASA's NSSDC Master Catalog

Two Line Element Set (TLE):
1 45442U 20020U   26136.98964106  .00000635  00000-0  17570-2 0  9990
2 45442  87.8920  27.2726 0001777  78.9992 281.1335 13.11417574298553
Source of the keplerian elements: AFSPC